Location: Oshawa
(43.9000°N, 78.8670°W)
Time: 22:51:13
(UTC-05:00)

Altair - Visible Passes

Search period start: 08 December 2016 00:00
Search period end: 18 December 2016 00:00
Orbit: 1501 x 1683 km, 47.2° (Epoch: 08 December)

Date Brightness Start Highest point End Pass type
(mag) Time Alt. Az. Time Alt. Az. Time Alt. Az.
09 Dec 9.2 06:49:39 10° SSW 06:57:55 36° SE 07:06:00 10° ENE visible
10 Dec 9.2 06:24:48 10° SSW 06:32:52 33° SE 06:40:46 10° ENE visible
11 Dec 9.2 05:59:58 10° S 06:07:50 31° SE 06:15:30 10° ENE visible
12 Dec 9.3 05:35:11 10° S 05:42:47 28° SE 05:50:13 10° ENE visible
13 Dec 9.3 05:10:26 10° S 05:17:45 26° SE 05:24:54 10° E visible
14 Dec 9.3 04:45:45 10° S 04:52:44 23° SE 04:59:33 10° E visible
14 Dec 7.9 06:46:51 10° SW 06:56:12 67° SSE 07:05:18 10° ENE visible
15 Dec 9.4 04:21:07 10° S 04:27:43 21° SE 04:34:10 10° E visible
15 Dec 8.0 06:21:45 10° SW 06:31:06 63° SSE 06:40:09 10° ENE visible
16 Dec 9.4 03:56:33 10° SSE 04:02:42 19° SE 04:08:42 10° E visible
16 Dec 8.0 05:56:41 10° SW 06:05:59 59° SE 06:15:00 10° ENE visible
17 Dec 9.5 03:32:04 10° SSE 03:37:41 17° SE 03:43:11 10° E visible
17 Dec 8.0 05:31:38 10° SW 05:40:53 56° SE 05:49:50 10° ENE visible
